#timestamp,LO_Frequency,Hit 
1502658015.5,286046997.6,N
1502658035.3,286046996.9,N
1502658055.1,286046996.9,N
1502658075.9,286046996.8,N
1502658095.7,286046998.5,N
1502658115.5,286047000.9,N
1502658135.4,286047000.2,N
1502658155.2,286046997.0,N
1502658175.0,286046996.8,N
1502658175.9,286046996.8,N
1502658195.8,286046997.1,N
1502658215.6,286046994.2,N
1502658235.4,286046994.1,N
1502658255.2,286046993.3,N
1502658275.1,286046995.2,N
1502658276.0,286046995.2,N
1502658295.8,286046994.8,N
1502658315.6,286046993.9,N
1502658335.5,286046999.1,N
1502658355.3,286046996.7,N
1502658375.1,286046995.3,N
1502658395.9,286046995.7,N
1502658415.7,286046996.2,N
1502658435.5,286046995.9,N
1502658455.4,286046995.1,N
1502658475.2,286046996.0,N
1502658495.0,286046991.9,P
1502658495.9,286046991.9,P
1502658515.8,286046997.7,N
1502658535.6,286046998.9,N
1502658555.4,286047000.6,N
1502658575.3,286046998.7,N
1502658595.1,286046999.5,N
1502658596.0,286046999.5,N
1502658615.8,286046999.4,N
1502658635.7,286046998.4,N
1502658655.5,286046998.5,N
1502658675.3,286046997.0,N
1502658695.2,286046999.0,N
1502658715.9,286046999.0,N
1502658735.7,286046995.4,N
1502658755.5,286046995.8,N
1502658775.4,286046995.8,N
1502658795.2,286046993.9,N
1502658815.0,286046993.5,N
1502658815.9,286046993.5,N
1502658835.8,286046993.6,N
1502658855.6,286046994.0,N
1502658875.4,286046993.5,N
1502658895.3,286046994.1,N
1502658915.1,286046992.2,N
1502658935.8,286046992.6,N
1502658955.7,286046994.7,N
1502658975.5,286046992.7,N
1502658995.3,286046996.4,N
1502659015.2,286046992.0,N
1502659035.9,286046992.0,N
1502659055.7,286046992.8,N
1502659075.6,286046992.3,N
1502659095.4,286046993.9,N
1502659115.2,286046992.0,N
1502659135.0,286046992.7,N
1502659136.0,286046992.7,N
1502659155.8,286046991.8,P
1502659175.6,286046997.3,N
1502659195.5,286046999.3,N
1502659215.3,286046998.2,N
1502659235.1,286046998.3,N
1502659255.8,286046999.7,N
1502659275.7,286047000.7,N
1502659295.5,286046998.1,N
1502659315.3,286047002.3,N
1502659335.2,286047002.2,N
1502659355.9,286047003.1,N
1502659375.7,286047002.9,N
1502659395.6,286047005.2,N
1502659415.4,286047005.2,N
1502659435.2,286047004.8,N
1502659455.1,286047007.2,N
1502659456.0,286047007.2,N
1502659475.8,286047007.4,N
1502659495.6,286047003.4,N
1502659515.5,286047003.8,N
1502659535.3,286047002.4,N
1502659555.1,286047003.3,N
1502659575.9,286047007.4,N
1502659595.7,286047005.1,N
1502659615.5,286047005.0,N
1502659635.4,286047001.4,N
1502659655.2,286047000.5,N
1502659675.0,286047002.5,N
1502659675.9,286047002.5,N
1502659695.8,286047001.9,N
1502659715.6,286047002.8,N
1502659735.4,286047002.8,N
1502659755.2,286047001.1,N
1502659775.1,286047001.0,N
1502659776.0,286047001.0,N
1502659795.8,286047002.4,N
1502659815.6,286047000.5,N
1502659835.5,286047001.8,N
1502659855.3,286047001.3,N
1502659875.1,286047004.0,N
1502659895.9,286047003.6,N
1502659915.7,286047005.7,N
1502659935.5,286047004.8,N
1502659955.4,286047004.5,N
1502659975.2,286047006.6,P
1502659995.0,286047005.5,P
1502659995.9,286047005.5,P
1502660015.8,286047005.9,P
1502660035.6,286046997.0,P
1502660055.4,286046999.0,N
1502660075.3,286046999.3,N
1502660095.1,286046997.8,N
1502660115.8,286047000.7,N
1502660135.7,286046999.3,N
1502660155.5,286046998.7,N
1502660175.3,286046999.2,N
1502660195.2,286046999.2,N
1502660215.9,286046995.7,N
1502660235.7,286046995.4,N
1502660255.6,286046996.1,N
1502660275.4,286046996.1,N
1502660295.2,286046994.3,N
1502660315.1,286046996.0,N
1502660316.0,286046996.0,N
1502660335.8,286046999.4,N
1502660355.6,286046999.6,N
1502660375.5,286046997.6,N
1502660395.3,286046996.7,N
1502660415.1,286046993.3,N
1502660435.8,286046995.1,N
1502660455.7,286046995.0,N
1502660475.5,286046998.0,N
1502660495.3,286046995.9,N
1502660515.2,286046992.0,N
1502660535.9,286046992.1,N
1502660555.7,286046996.7,N
1502660575.6,286046995.5,N
1502660595.4,286046993.3,N
1502660615.2,286046996.8,N
1502660635.1,286046996.1,N
1502660636.0,286046996.1,N
1502660655.8,286046997.7,N
1502660675.6,286046999.0,N
1502660695.4,286047000.4,N
1502660715.3,286047000.8,N
1502660735.1,286046999.8,N
1502660755.8,286047002.2,N
1502660775.7,286046999.4,N
1502660795.5,286046997.1,N
1502660815.3,286046996.5,N
1502660835.2,286046996.9,N
1502660855.9,286046994.9,N
1502660875.7,286046997.4,N
1502660895.6,286046997.6,N
1502660915.4,286046999.1,N
1502660935.2,286046999.4,N
1502660955.1,286046997.2,N
1502660956.0,286046997.2,N
1502660975.8,286046996.8,N
1502660995.6,286046997.4,N
1502661015.5,286046997.3,N
1502661035.3,286046995.8,N
1502661055.1,286046995.8,N
1502661075.9,286046997.7,N
1502661095.7,286046997.5,N
1502661115.5,286046997.8,N
1502661135.3,286046995.4,N
1502661155.2,286046995.3,N
1502661175.0,286046995.2,N
1502661175.9,286046995.2,N
1502661195.7,286046995.1,N
1502661215.6,286046993.4,P
1502661235.4,286046998.4,N
1502661255.3,286046999.3,N
1502661275.1,286046995.0,N
1502661276.0,286046995.0,N
1502661295.8,286046994.9,N
1502661315.6,286046995.3,N
1502661335.5,286046995.0,N
1502661355.3,286046995.4,N
1502661375.1,286046999.6,N
1502661395.9,286046996.9,N
1502661415.7,286046993.8,P
1502661435.5,286046998.4,N
1502661455.4,286047000.4,N
1502661475.2,286047000.7,N
1502661495.0,286046998.3,N
1502661495.9,286046998.3,N
1502661515.8,286046998.4,N
1502661535.6,286046998.4,N
1502661555.4,286046998.7,N
1502661575.3,286047000.9,N
1502661595.1,286047001.9,N
1502661596.0,286047001.9,N
